Skip Page Navigation
NASA JPL Caltech
NASA Logo - Jet Propulsion Laboratory + View the NASA Portal
+ Near-Earth Object (NEO) Program
Search JPL
JPL Home Earth Solar System Stars & Galaxies Technology
JPL Solar System Dynamics
BODIES ORBITS EPHEMERIDES TOOLS PHYSICAL DATA DISCOVERY FAQ SITE MAP
JPL Small-Body Database Browser
Search: [ help ]  
12173 Lansbergen (3135 T-3)
Classification: Main-belt Asteroid          SPK-ID: 2012173
Ephemeris | Orbit Diagram | Orbital Elements | Physical Parameters | Discovery Circumstances ]

[ show orbit diagram ]
Orbital Elements at Epoch 2456400.5 (2013-Apr-18.0) TDB
Reference: MPO233589 (heliocentric ecliptic J2000)
 Element Value Uncertainty (1-sigma)   Units 
e 0.0594003 n/a  
a 2.7394936 n/a AU
q 2.5767669 n/a AU
i 3.42602 n/a deg
node 185.48076 n/a deg
peri 264.40566 n/a deg
M 236.27639 n/a deg
tp 2456969.6856691
(2014-Nov-08.18566910)
n/a JED
period 1656.1660373
4.53
n/a
n/a
d
yr
n 0.21736951 n/a deg/d
Q 2.9022203 n/a AU
  Orbit Determination Parameters
   # obs. used (total)      844  
   first obs. used      1977-??-??  
   last obs. used      2012-06-23  
   # oppositions      14  
   planetary ephem.      DE403  
   condition code      0  
   fit RMS      0.55  
   data source      MPC:mpn  
   producer      MPCLINUX  

Additional Information
 T_jup = 3.345 

Ephemeris | Orbit Diagram | Orbital Elements | Physical Parameters | Discovery Circumstances ]

Physical Parameter Table
Parameter Symbol Value Units Sigma Reference Notes
absolute magnitude H 14.0 mag n/a PDS3 (MPC 36321)  

12173 Lansbergen           Discovered 1977 Oct. 16 by C. J. van Houten and I. van Houten-Groeneveld on Palomar Schmidt plates taken by T. Gehrels.
Philippus Lansbergen (1561-1632), Calvanist minister and active astronomical researcher in Middelburg, The Netherlands, in 1629 wrote the first popular book on astronomy in the Dutch language. The book promoted the Copernican system and became a best seller.
NOTE: some special characters may not display properly (any characters within {} are an attempt to place the proper accent above a character)
Reference: 20090209/MPCPages.arcLast Updated: 2009-02-11

Alternate Designations
 3135 T-3 = 1998 KM1 
Ephemeris | Orbit Diagram | Orbital Elements | Physical Parameters | Discovery Circumstances ]
ABOUT SSD CREDITS/AWARDS PRIVACY/COPYRIGHT GLOSSARY LINKS
FirstGov 2013-May-20 08:37 UT
(server date/time)  
NASA Home Page
Site Manager:   Donald K. Yeomans
Webmaster  Alan B. Chamberlin